Regional Weather Roundup
Issued by NWS

Home | Current Version | Previous Version | Text Only | Print | Product List | Glossary On
Versions: 1 2 3 4 5 6 7 8 9 10 11 12 13 14 15 16 17 18 19 20 21 22 23 24 25 26 27
000
ASUS45 KTFX 062310
RWRMT
MONTANA REGIONAL WEATHER ROUNDUP
NATIONAL WEATHER SERVICE GREAT FALLS MT
500 PM MDT FRI MAY 06 2016

NOTE: "FAIR" INDICATES FEW OR NO CLOUDS BELOW 12000 FEET WITH NO
SIGNIFICANT WEATHER AND/OR OBSTRUCTIONS TO VISIBILITY.

MTZ001>007-043-070000-
WEST OF THE DIVIDE

CITY           SKY/WX    TMP DP  RH WIND       PRES   REMARKS
KALISPELL      SUNNY     70  39  32 NE16      30.10F
MISSOULA       CLOUDY    64  41  42 E17       30.08F
BUTTE          CLOUDY    48  40  73 NW9       30.14S
MULLAN PASS    CLOUDY    50  42  74 VRB5      30.13S
ANACONDA         N/A     46  39  76 N21G26    30.13F
DEER LODGE       N/A     48  41  76 NE12      30.18F
EUREKA           N/A     73  32  21 S5        30.07F
HAMILTON         N/A     61  43  51 NW18G29   30.03S
LIBBY            N/A     72  41  33 NE5       30.06F
PLAINS           N/A     70  50  49 N6        30.06F
THOMPSON FALLS   N/A     71  50  47 E3        30.07F
$$

MTZ008-052>055-070000-
SOUTHWEST MONTANA

CITY           SKY/WX    TMP DP  RH WIND       PRES   REMARKS
BOZEMAN        CLOUDY    60  43  53 E15G30    30.10R
DILLON         CLOUDY    56  45  66 N25G31    30.03F
ENNIS          SUNNY     57  43  58 N26G38    30.09S
THREE FORKS      N/A     62  24  23 E2        30.09S
$$

MTZ009-010-012-014-046-048-049-054-070000-
EAST SLOPES AND CENTRAL MONTANA

CITY           SKY/WX    TMP DP  RH WIND       PRES   REMARKS
CUT BANK       SUNNY     60  29  30 CALM      30.21F
GREAT FALLS    CLOUDY    56  41  57 E8        30.21F
MALMSTROM AFB  CLOUDY    56  42  61 NE2       30.22F
HELENA         CLOUDY    54  42  64 N16       30.17F
CHOTEAU          N/A     55  37  50 VRB5      30.23F
CONRAD           N/A     59  48  66 E6        30.23F
$$

MTZ011-013-016-021-045-047-050-051-070000-
NORTH CENTRAL MONTANA

CITY           SKY/WX    TMP DP  RH WIND       PRES   REMARKS
HAVRE          SUNNY     66  38  35 E10       30.18F
LEWISTOWN      CLOUDY    53  45  74 MISG      30.22F
N BAR RANCH    CLOUDY    55  41  58 N13       30.23S
$$

MTZ017>020-022>027-061-062-070000-
NORTHEAST MONTANA

CITY           SKY/WX    TMP DP  RH WIND       PRES   REMARKS
GLASGOW        MOSUNNY   70  28  21 VRB7      30.13F
JORDAN           N/A     65  38  36 N12       30.14F
SIDNEY         CLOUDY    70  30  23 N13       30.08S
WOLF POINT     MOSUNNY   73  31  21 N7G21     30.11F
POPLAR           N/A     70  27  19 N12       30.12S
SCOBEY           N/A     68  31  25 N12       30.11
$$

MTZ028>42-056>058-070000-
SOUTHCENTRAL AND SOUTHEAST MONTANA

CITY           SKY/WX    TMP DP  RH WIND       PRES   REMARKS
BAKER          MOSUNNY   68  42  38 NE21      30.08F
BILLINGS       CLOUDY    60  44  55 NE7       30.17F
LIVINGSTON     CLOUDY    53  43  68 E23       30.15S
MILES CITY     CLOUDY    70  42  36 N10G18    30.10F
EKALAKA          N/A     64  41  43 N15       30.06
FORSYTH          N/A     66  45  45 N13       30.11F
LAUREL           N/A     58  42  55 NE7       30.14F
ROUNDUP          N/A     60  40  47 N9        30.08S
$$

REGIONAL REPORTS...DAKOTAS

CITY           SKY/WX    TMP DP  RH WIND       PRES   REMARKS
WILLISTON      SUNNY     70  30  22 N17G30    30.09S
MINOT          CLOUDY    71  29  21 N18       30.03R HAZE
DICKINSON      MOSUNNY   65  44  46 N18       30.03S
BEACH            N/A     64  36  34 N17       30.10F
CROSBY           N/A     66  28  24 NW17G25   30.10S
TIOGA            N/A     66  27  22 N16       30.12F
WATFORD CITY     N/A     68  28  22 N15G21    30.08R
BISMARCK       MOSUNNY   69  46  43 N16G24    29.99R
GRAND FORKS    CLOUDY    65  29  25 N28G36    29.93R
FARGO          MOSUNNY   74  39  28 N31G38    29.86R
BUFFALO SD       N/A     72  46  39 N20G29    29.97S
RAPID CITY     CLOUDY    72  51  47 N18       29.98R
$$

REGIONAL REPORTS...WYOMING/IDAHO/WASHINGTON

CITY           SKY/WX    TMP DP  RH WIND       PRES   REMARKS
GILLETTE       MOSUNNY   67  45  45 N24G35    30.05F
SHERIDAN       CLOUDY    59  48  67 NW12      30.12F
BUFFALO WY     CLOUDY    59  43  55 NW18G29   30.14S
CODY           CLOUDY    54  43  66 N25G31    30.13R
YELLOWSTONE LA   N/A     56  34  43 VRB5      30.13F
IDAHO FALLS    CLOUDY    57  48  72 N14       29.92F
SALMON         CLOUDY    59  46  63 S6        29.97S
BOISE          CLOUDY    74  50  42 VRB7      29.76F
SPOKANE        PTSUNNY   76  43  30 NE18      29.96F
$$

REGIONAL REPORTS...ALBERTA

CITY           SKY/WX    TMP DP  RH WIND       PRES   REMARKS
EDMONTON       SUNNY     68  25  19 W5        30.10F
CALGARY        PTSUNNY   68  19  15 S13       30.16F
LETHBRIDGE     MOSUNNY   66  28  24 CALM      30.19F
MEDICINE HAT   MOSUNNY   70  28  21 VRB6      30.17F
WATERTON GATE    N/A     61  30  31 NE12G18     N/A
CARDSTON         N/A     66  27  22 SE6         N/A
MILK RIVER       N/A     64  32  29 NE7         N/A
ONEFOUR          N/A     64  27  24 E5          N/A
$$

REGIONAL REPORTS...SASKATCHEWAN

CITY           SKY/WX    TMP DP  RH WIND       PRES   REMARKS
SWIFT CURRENT  SUNNY     66  19  16 NW15G21   30.15F
REGINA         PTSUNNY   66  28  24 N16G28    30.08F
SASKATOON      MOSUNNY   66  21  18 NW14G21   30.12F
CYPRESS HILLS    N/A     59  28  31 NE7         N/A
VAL MARIE        N/A     68  28  22 N10         N/A
ROCKGLEN         N/A     63  28  27 N16G22      N/A
$$




USA.gov is the U.S. government's official web portal to all federal, state and local government web resources and services.